Time,TemperatureF,DewpointF,PressureIn,WindDirection,WindDirectionDegrees,WindSpeedMPH,WindSpeedGustMPH,Humidity,HourlyPrecipIn,Conditions,Clouds,dailyrainin,SoftwareType,DateUTC
2013-02-28 00:00:00,47.9,40.7,29.82,WSW,252,3.0,5.0,76,0.00,,---,0.00,VWS V14.00,2013-02-28 05:00:00,
2013-02-28 00:05:00,47.9,40.7,29.82,West,267,1.0,11.0,76,0.00,,---,0.00,VWS V14.00,2013-02-28 05:05:00,
2013-02-28 00:10:00,47.8,40.6,29.82,WSW,251,3.0,11.0,76,0.00,,---,0.00,VWS V14.00,2013-02-28 05:10:00,
2013-02-28 00:15:00,47.8,40.6,29.82,WSW,246,2.0,11.0,76,0.00,,---,0.00,VWS V14.00,2013-02-28 05:15:00,
2013-02-28 00:20:00,47.7,40.5,29.82,WSW,248,4.0,11.0,76,0.00,,---,0.00,VWS V14.00,2013-02-28 05:20:00,
2013-02-28 00:25:00,47.5,40.3,29.82,WSW,251,5.0,11.0,76,0.00,,---,0.00,VWS V14.00,2013-02-28 05:25:00,
2013-02-28 00:30:00,47.4,40.2,29.82,West,259,0.0,4.0,76,0.00,,---,0.00,VWS V14.00,2013-02-28 05:30:00,
2013-02-28 00:35:00,47.3,40.1,29.81,WSW,258,0.0,8.0,76,0.00,,---,0.00,VWS V14.00,2013-02-28 05:35:00,
2013-02-28 00:40:00,47.2,40.0,29.81,WSW,247,1.0,8.0,76,0.00,,---,0.00,VWS V14.00,2013-02-28 05:40:00,
2013-02-28 00:45:00,47.2,40.0,29.81,West,259,2.0,8.0,76,0.00,,---,0.00,VWS V14.00,2013-02-28 05:45:00,
2013-02-28 00:50:00,47.1,39.9,29.81,WSW,253,3.0,8.0,76,0.00,,---,0.00,VWS V14.00,2013-02-28 05:50:00,
2013-02-28 00:55:00,47.0,39.8,29.81,WSW,250,3.0,8.0,76,0.00,,---,0.00,VWS V14.00,2013-02-28 05:55:00,
2013-02-28 01:00:00,46.9,39.7,29.82,West,259,2.0,4.0,76,0.00,,---,0.00,VWS V14.00,2013-02-28 06:00:00,
2013-02-28 01:05:00,46.9,39.7,29.82,WSW,245,3.0,5.0,76,0.00,,---,0.00,VWS V14.00,2013-02-28 06:05:00,
2013-02-28 01:10:00,46.9,39.7,29.81,West,263,0.0,7.0,76,0.00,,---,0.00,VWS V14.00,2013-02-28 06:10:00,
2013-02-28 01:15:00,46.9,39.7,29.81,West,272,2.0,7.0,76,0.00,,---,0.00,VWS V14.00,2013-02-28 06:15:00,
2013-02-28 01:20:00,46.8,39.7,29.81,West,262,3.0,7.0,76,0.00,,---,0.00,VWS V14.00,2013-02-28 06:20:00,
2013-02-28 01:25:00,46.7,39.5,29.81,West,261,2.0,7.0,76,0.00,,---,0.00,VWS V14.00,2013-02-28 06:25:00,
2013-02-28 01:30:00,46.7,39.5,29.81,West,278,2.0,6.0,76,0.00,,---,0.00,VWS V14.00,2013-02-28 06:30:00,
2013-02-28 01:35:00,46.6,39.5,29.81,West,266,0.0,6.0,76,0.00,,---,0.00,VWS V14.00,2013-02-28 06:35:00,
2013-02-28 01:40:00,46.6,39.5,29.81,WSW,257,1.0,6.0,76,0.00,,---,0.00,VWS V14.00,2013-02-28 06:40:00,
2013-02-28 01:45:00,46.6,39.5,29.81,WSW,258,0.0,6.0,76,0.00,,---,0.00,VWS V14.00,2013-02-28 06:45:00,
2013-02-28 01:50:00,46.5,39.4,29.81,WSW,251,0.0,6.0,76,0.00,,---,0.00,VWS V14.00,2013-02-28 06:50:00,
2013-02-28 01:55:00,46.4,39.3,29.81,WSW,253,2.0,6.0,76,0.00,,---,0.00,VWS V14.00,2013-02-28 06:55:00,
2013-02-28 02:00:00,46.3,39.2,29.81,WSW,256,1.0,5.0,76,0.00,,---,0.00,VWS V14.00,2013-02-28 07:00:00,
2013-02-28 02:05:00,46.2,39.1,29.80,West,267,1.0,7.0,76,0.00,,---,0.00,VWS V14.00,2013-02-28 07:05:00,
2013-02-28 02:10:00,46.1,39.0,29.80,West,260,1.0,7.0,76,0.00,,---,0.00,VWS V14.00,2013-02-28 07:10:00,
2013-02-28 02:15:00,46.0,38.9,29.80,WSW,257,0.0,7.0,76,0.00,,---,0.00,VWS V14.00,2013-02-28 07:15:00,
2013-02-28 02:20:00,46.0,38.9,29.80,West,259,3.0,7.0,76,0.00,,---,0.00,VWS V14.00,2013-02-28 07:20:00,
2013-02-28 02:25:00,45.9,38.8,29.80,West,261,0.0,7.0,76,0.00,,---,0.00,VWS V14.00,2013-02-28 07:25:00,
2013-02-28 02:30:00,45.8,38.7,29.80,West,263,1.0,6.0,76,0.00,,---,0.00,VWS V14.00,2013-02-28 07:30:00,
2013-02-28 02:35:00,45.8,39.0,29.80,WSW,252,3.0,6.0,77,0.00,,---,0.00,VWS V14.00,2013-02-28 07:35:00,
2013-02-28 02:40:00,45.8,38.7,29.80,West,262,1.0,7.0,76,0.00,,---,0.00,VWS V14.00,2013-02-28 07:40:00,
2013-02-28 02:45:00,45.8,38.7,29.79,West,263,4.0,7.0,76,0.00,,---,0.00,VWS V14.00,2013-02-28 07:45:00,
2013-02-28 02:50:00,45.8,38.7,29.79,West,264,2.0,8.0,76,0.00,,---,0.00,VWS V14.00,2013-02-28 07:50:00,
2013-02-28 02:55:00,45.8,38.3,29.79,WSW,251,2.0,8.0,75,0.00,,---,0.00,VWS V14.00,2013-02-28 07:55:00,
2013-02-28 03:00:00,45.8,38.3,29.79,WSW,249,2.0,6.0,75,0.00,,---,0.00,VWS V14.00,2013-02-28 08:00:00,
2013-02-28 03:05:00,45.7,38.2,29.79,WSW,253,3.0,6.0,75,0.00,,---,0.00,VWS V14.00,2013-02-28 08:05:00,
2013-02-28 03:10:00,45.6,38.2,29.80,West,260,2.0,6.0,75,0.00,,---,0.00,VWS V14.00,2013-02-28 08:10:00,
2013-02-28 03:15:00,45.6,38.2,29.80,West,273,1.0,8.0,75,0.00,,---,0.00,VWS V14.00,2013-02-28 08:15:00,
2013-02-28 03:20:00,45.6,38.2,29.80,NW,313,4.0,8.0,75,0.00,,---,0.00,VWS V14.00,2013-02-28 08:20:00,
2013-02-28 03:25:00,45.5,38.0,29.80,West,266,1.0,8.0,75,0.00,,---,0.00,VWS V14.00,2013-02-28 08:25:00,
2013-02-28 03:30:00,45.5,37.7,29.80,NNW,327,1.0,8.0,74,0.00,,---,0.00,VWS V14.00,2013-02-28 08:30:00,
2013-02-28 03:35:00,45.4,37.6,29.80,West,269,1.0,8.0,74,0.00,,---,0.00,VWS V14.00,2013-02-28 08:35:00,
2013-02-28 03:40:00,45.3,37.5,29.80,NW,321,1.0,8.0,74,0.00,,---,0.00,VWS V14.00,2013-02-28 08:40:00,
2013-02-28 03:45:00,45.2,37.4,29.80,West,259,0.0,8.0,74,0.00,,---,0.00,VWS V14.00,2013-02-28 08:45:00,
2013-02-28 03:50:00,45.1,37.3,29.80,WNW,303,0.0,8.0,74,0.00,,---,0.00,VWS V14.00,2013-02-28 08:50:00,
2013-02-28 03:55:00,45.0,37.2,29.80,WNW,301,0.0,8.0,74,0.00,,---,0.00,VWS V14.00,2013-02-28 08:55:00,
2013-02-28 04:00:00,44.7,37.3,29.80,WNW,296,0.0,4.0,75,0.00,,---,0.00,VWS V14.00,2013-02-28 09:00:00,
2013-02-28 04:05:00,44.6,37.2,29.80,WNW,283,0.0,4.0,75,0.00,,---,0.00,VWS V14.00,2013-02-28 09:05:00,
2013-02-28 04:10:00,44.3,36.9,29.80,WSW,255,2.0,5.0,75,0.00,,---,0.00,VWS V14.00,2013-02-28 09:10:00,
2013-02-28 04:15:00,44.2,36.8,29.80,West,261,1.0,5.0,75,0.00,,---,0.00,VWS V14.00,2013-02-28 09:15:00,
2013-02-28 04:20:00,44.0,36.9,29.80,West,265,1.0,5.0,76,0.00,,---,0.00,VWS V14.00,2013-02-28 09:20:00,
2013-02-28 04:25:00,43.8,36.7,29.80,West,268,0.0,5.0,76,0.00,,---,0.00,VWS V14.00,2013-02-28 09:25:00,
2013-02-28 04:30:00,43.7,36.6,29.80,NW,309,0.0,4.0,76,0.00,,---,0.00,VWS V14.00,2013-02-28 09:30:00,
2013-02-28 04:35:00,43.5,36.5,29.80,WNW,291,0.0,4.0,76,0.00,,---,0.00,VWS V14.00,2013-02-28 09:35:00,
2013-02-28 04:40:00,43.3,36.6,29.81,WNW,289,1.0,4.0,77,0.00,,---,0.00,VWS V14.00,2013-02-28 09:40:00,
2013-02-28 04:45:00,43.2,36.5,29.81,NW,311,1.0,6.0,77,0.00,,---,0.00,VWS V14.00,2013-02-28 09:45:00,
2013-02-28 04:50:00,43.0,36.0,29.81,NW,310,0.0,6.0,76,0.00,,---,0.00,VWS V14.00,2013-02-28 09:50:00,
2013-02-28 04:55:00,42.9,36.2,29.81,NW,310,0.0,6.0,77,0.00,,---,0.00,VWS V14.00,2013-02-28 09:55:00,
2013-02-28 05:00:00,42.7,36.0,29.81,WNW,299,1.0,4.0,77,0.00,,---,0.00,VWS V14.00,2013-02-28 10:00:00,
2013-02-28 05:05:00,42.5,35.8,29.82,WNW,286,0.0,4.0,77,0.00,,---,0.00,VWS V14.00,2013-02-28 10:05:00,
2013-02-28 05:10:00,42.3,35.6,29.82,WNW,284,1.0,4.0,77,0.00,,---,0.00,VWS V14.00,2013-02-28 10:10:00,
2013-02-28 05:15:00,42.2,35.5,29.82,West,265,1.0,5.0,77,0.00,,---,0.00,VWS V14.00,2013-02-28 10:15:00,
2013-02-28 05:20:00,42.1,35.4,29.82,West,263,2.0,2.0,77,0.00,,---,0.00,VWS V14.00,2013-02-28 10:20:00,
2013-02-28 05:25:00,42.1,35.4,29.82,West,267,0.0,5.0,77,0.00,,---,0.00,VWS V14.00,2013-02-28 10:25:00,
2013-02-28 05:30:00,42.0,35.0,29.82,West,265,0.0,3.0,76,0.00,,---,0.00,VWS V14.00,2013-02-28 10:30:00,
2013-02-28 05:35:00,42.0,35.0,29.82,West,264,2.0,4.0,76,0.00,,---,0.00,VWS V14.00,2013-02-28 10:35:00,
2013-02-28 05:40:00,41.9,34.9,29.82,West,281,1.0,4.0,76,0.00,,---,0.00,VWS V14.00,2013-02-28 10:40:00,
2013-02-28 05:45:00,41.8,34.8,29.82,West,279,0.0,4.0,76,0.00,,---,0.00,VWS V14.00,2013-02-28 10:45:00,
2013-02-28 05:50:00,41.7,34.4,29.83,WNW,288,2.0,6.0,75,0.00,,---,0.00,VWS V14.00,2013-02-28 10:50:00,
2013-02-28 05:55:00,41.7,34.4,29.83,WNW,288,0.0,6.0,75,0.00,,---,0.00,VWS V14.00,2013-02-28 10:55:00,
2013-02-28 06:00:00,41.6,34.3,29.83,West,277,6.0,6.0,75,0.00,,---,0.00,VWS V14.00,2013-02-28 11:00:00,
2013-02-28 06:05:00,41.6,34.3,29.83,West,273,1.0,6.0,75,0.00,,---,0.00,VWS V14.00,2013-02-28 11:05:00,
2013-02-28 06:10:00,41.5,34.2,29.83,West,273,1.0,6.0,75,0.00,,---,0.00,VWS V14.00,2013-02-28 11:10:00,
2013-02-28 06:15:00,41.3,34.0,29.83,West,273,0.0,6.0,75,0.00,,---,0.00,VWS V14.00,2013-02-28 11:15:00,
2013-02-28 06:20:00,41.3,34.0,29.83,West,259,0.0,6.0,75,0.00,,---,0.00,VWS V14.00,2013-02-28 11:20:00,
2013-02-28 06:25:00,41.2,33.5,29.83,WNW,289,2.0,6.0,74,0.00,,---,0.00,VWS V14.00,2013-02-28 11:25:00,
2013-02-28 06:30:00,41.2,33.5,29.83,WSW,257,1.0,5.0,74,0.00,,---,0.00,VWS V14.00,2013-02-28 11:30:00,
2013-02-28 06:35:00,41.2,33.5,29.84,West,281,0.0,6.0,74,0.00,,---,0.00,VWS V14.00,2013-02-28 11:35:00,
2013-02-28 06:40:00,41.1,33.5,29.83,West,279,1.0,6.0,74,0.00,,---,0.00,VWS V14.00,2013-02-28 11:40:00,
2013-02-28 06:45:00,41.0,34.7,29.84,NW,310,4.0,8.0,78,0.00,,---,0.00,VWS V14.00,2013-02-28 11:45:00,
2013-02-28 06:50:00,40.9,33.3,29.84,NW,320,2.0,8.0,74,0.00,,---,0.00,VWS V14.00,2013-02-28 11:50:00,
2013-02-28 06:55:00,40.7,33.4,29.84,NW,321,0.0,8.0,75,0.00,,---,0.00,VWS V14.00,2013-02-28 11:55:00,
2013-02-28 07:00:00,40.5,33.2,29.84,NW,319,0.0,2.0,75,0.00,,---,0.00,VWS V14.00,2013-02-28 12:00:00,
2013-02-28 07:05:00,40.3,33.3,29.84,NW,319,0.0,2.0,76,0.00,,---,0.00,VWS V14.00,2013-02-28 12:05:00,
2013-02-28 07:10:00,40.1,33.2,29.85,NW,319,0.0,2.0,76,0.00,,---,0.00,VWS V14.00,2013-02-28 12:10:00,
2013-02-28 07:15:00,39.9,33.3,29.84,NW,319,2.0,2.0,77,0.00,,---,0.00,VWS V14.00,2013-02-28 12:15:00,
2013-02-28 07:20:00,39.7,33.1,29.85,WNW,302,0.0,4.0,77,0.00,,---,0.00,VWS V14.00,2013-02-28 12:20:00,
2013-02-28 07:25:00,39.7,33.1,29.85,WNW,289,4.0,4.0,77,0.00,,---,0.00,VWS V14.00,2013-02-28 12:25:00,
2013-02-28 07:30:00,39.8,32.9,29.85,West,265,0.0,3.0,76,0.00,,---,0.00,VWS V14.00,2013-02-28 12:30:00,
2013-02-28 07:35:00,40.1,33.2,29.85,West,271,0.0,5.0,76,0.00,,---,0.00,VWS V14.00,2013-02-28 12:35:00,
2013-02-28 07:40:00,40.4,33.1,29.86,WNW,290,0.0,5.0,75,0.00,,---,0.00,VWS V14.00,2013-02-28 12:40:00,
2013-02-28 07:45:00,40.8,33.2,29.86,West,263,0.0,5.0,74,0.00,,---,0.00,VWS V14.00,2013-02-28 12:45:00,
2013-02-28 07:50:00,41.2,33.5,29.86,West,264,0.0,5.0,74,0.00,,---,0.00,VWS V14.00,2013-02-28 12:50:00,
2013-02-28 07:55:00,41.7,33.7,29.86,NW,306,1.0,6.0,73,0.00,,---,0.00,VWS V14.00,2013-02-28 12:55:00,
2013-02-28 08:00:00,42.0,33.6,29.86,West,267,0.0,6.0,72,0.00,,---,0.00,VWS V14.00,2013-02-28 13:00:00,
2013-02-28 08:05:00,42.4,34.0,29.87,WNW,292,0.0,6.0,72,0.00,,---,0.00,VWS V14.00,2013-02-28 13:05:00,
2013-02-28 08:10:00,42.8,34.1,29.87,NW,315,0.0,6.0,71,0.00,,---,0.00,VWS V14.00,2013-02-28 13:10:00,
2013-02-28 08:15:00,43.2,34.1,29.87,NW,306,2.0,6.0,70,0.00,,---,0.00,VWS V14.00,2013-02-28 13:15:00,
2013-02-28 08:20:00,43.5,34.0,29.87,NNW,331,0.0,9.0,69,0.00,,---,0.00,VWS V14.00,2013-02-28 13:20:00,
2013-02-28 08:25:00,43.7,33.8,29.87,WSW,246,3.0,9.0,68,0.00,,---,0.00,VWS V14.00,2013-02-28 13:25:00,
2013-02-28 08:30:00,43.8,33.9,29.88,West,259,2.0,12.0,68,0.00,,---,0.00,VWS V14.00,2013-02-28 13:30:00,
2013-02-28 08:35:00,44.1,33.9,29.88,NW,304,1.0,12.0,67,0.00,,---,0.00,VWS V14.00,2013-02-28 13:35:00,
2013-02-28 08:40:00,44.5,34.2,29.88,West,264,2.0,12.0,67,0.00,,---,0.00,VWS V14.00,2013-02-28 13:40:00,
2013-02-28 08:45:00,44.9,34.2,29.88,WNW,303,6.0,12.0,66,0.00,,---,0.00,VWS V14.00,2013-02-28 13:45:00,
2013-02-28 08:50:00,45.2,34.2,29.88,NW,325,0.0,12.0,65,0.00,,---,0.00,VWS V14.00,2013-02-28 13:50:00,
2013-02-28 08:55:00,45.4,34.0,29.87,NW,321,1.0,12.0,64,0.00,,---,0.00,VWS V14.00,2013-02-28 13:55:00,
2013-02-28 09:00:00,45.6,34.1,29.87,North,5,5.0,6.0,64,0.00,,---,0.00,VWS V14.00,2013-02-28 14:00:00,
2013-02-28 09:05:00,45.7,34.2,29.87,NNW,332,8.0,12.0,64,0.00,,---,0.00,VWS V14.00,2013-02-28 14:05:00,
2013-02-28 09:10:00,45.9,33.6,29.87,NNW,331,9.0,12.0,62,0.00,,---,0.00,VWS V14.00,2013-02-28 14:10:00,
2013-02-28 09:15:00,46.2,33.9,29.87,West,275,1.0,12.0,62,0.00,,---,0.00,VWS V14.00,2013-02-28 14:15:00,
2013-02-28 09:20:00,46.7,32.7,29.87,NW,319,11.0,13.0,58,0.00,,---,0.00,VWS V14.00,2013-02-28 14:20:00,
2013-02-28 09:25:00,46.8,32.4,29.87,West,278,7.0,13.0,57,0.00,,---,0.00,VWS V14.00,2013-02-28 14:25:00,
2013-02-28 09:30:00,47.0,33.0,29.88,NNW,347,4.0,8.0,58,0.00,,---,0.00,VWS V14.00,2013-02-28 14:30:00,
2013-02-28 09:35:00,47.4,31.6,29.88,NNW,331,6.0,12.0,54,0.00,,---,0.00,VWS V14.00,2013-02-28 14:35:00,
2013-02-28 09:40:00,47.4,31.6,29.88,WNW,301,4.0,12.0,54,0.00,,---,0.00,VWS V14.00,2013-02-28 14:40:00,
2013-02-28 09:45:00,47.8,32.0,29.87,NNW,341,4.0,12.0,54,0.00,,---,0.00,VWS V14.00,2013-02-28 14:45:00,
2013-02-28 09:50:00,48.0,31.7,29.87,North,5,3.0,12.0,53,0.00,,---,0.00,VWS V14.00,2013-02-28 14:50:00,
2013-02-28 09:55:00,48.2,32.3,29.87,West,278,4.0,13.0,54,0.00,,---,0.00,VWS V14.00,2013-02-28 14:55:00,
2013-02-28 10:00:00,48.4,32.5,29.87,North,5,7.0,8.0,54,0.00,,---,0.00,VWS V14.00,2013-02-28 15:00:00,
2013-02-28 10:05:00,48.6,33.2,29.87,NE,45,4.0,8.0,55,0.00,,---,0.00,VWS V14.00,2013-02-28 15:05:00,
2013-02-28 10:10:00,48.6,32.7,29.87,WSW,242,4.0,13.0,54,0.00,,---,0.00,VWS V14.00,2013-02-28 15:10:00,
2013-02-28 10:15:00,48.8,32.9,29.86,NNW,343,7.0,14.0,54,0.00,,---,0.00,VWS V14.00,2013-02-28 15:15:00,
2013-02-28 10:20:00,48.9,33.0,29.87,WSW,245,4.0,14.0,54,0.00,,---,0.00,VWS V14.00,2013-02-28 15:20:00,
2013-02-28 10:25:00,49.2,32.8,29.87,WNW,296,4.0,16.0,53,0.00,,---,0.00,VWS V14.00,2013-02-28 15:25:00,
2013-02-28 10:30:00,49.3,32.4,29.87,NW,325,6.0,14.0,52,0.00,,---,0.00,VWS V14.00,2013-02-28 15:30:00,
2013-02-28 10:35:00,49.4,32.5,29.87,WSW,241,6.0,15.0,52,0.00,,---,0.00,VWS V14.00,2013-02-28 15:35:00,
2013-02-28 10:40:00,49.5,32.6,29.86,West,260,4.0,15.0,52,0.00,,---,0.00,VWS V14.00,2013-02-28 15:40:00,
2013-02-28 10:45:00,49.7,33.3,29.87,West,273,1.0,15.0,53,0.00,,---,0.00,VWS V14.00,2013-02-28 15:45:00,
2013-02-28 10:50:00,50.6,33.6,29.86,North,360,6.0,15.0,52,0.00,,---,0.00,VWS V14.00,2013-02-28 15:50:00,
2013-02-28 10:55:00,51.0,33.0,29.87,WSW,239,10.0,15.0,50,0.00,,---,0.00,VWS V14.00,2013-02-28 15:55:00,
2013-02-28 11:00:00,50.9,33.4,29.86,NNW,329,4.0,8.0,51,0.00,,---,0.00,VWS V14.00,2013-02-28 16:00:00,
2013-02-28 11:05:00,50.8,33.8,29.86,WSW,248,1.0,8.0,52,0.00,,---,0.00,VWS V14.00,2013-02-28 16:05:00,
2013-02-28 11:10:00,51.4,34.4,29.86,WNW,298,4.0,18.0,52,0.00,,---,0.00,VWS V14.00,2013-02-28 16:10:00,
2013-02-28 11:15:00,51.8,32.8,29.86,NW,326,4.0,19.0,48,0.00,,---,0.00,VWS V14.00,2013-02-28 16:15:00,
2013-02-28 11:20:00,51.1,32.6,29.86,North,5,2.0,21.0,49,0.00,,---,0.00,VWS V14.00,2013-02-28 16:20:00,
2013-02-28 11:25:00,50.6,32.7,29.86,NNW,348,4.0,21.0,50,0.00,,---,0.00,VWS V14.00,2013-02-28 16:25:00,
2013-02-28 11:30:00,50.8,33.3,29.86,WSW,246,7.0,14.0,51,0.00,,---,0.00,VWS V14.00,2013-02-28 16:30:00,
2013-02-28 11:35:00,50.9,33.4,29.86,West,269,1.0,16.0,51,0.00,,---,0.00,VWS V14.00,2013-02-28 16:35:00,
2013-02-28 11:40:00,51.5,33.5,29.86,WNW,296,5.0,16.0,50,0.00,,---,0.00,VWS V14.00,2013-02-28 16:40:00,
2013-02-28 11:45:00,51.6,33.6,29.86,NW,324,1.0,16.0,50,0.00,,---,0.00,VWS V14.00,2013-02-28 16:45:00,
2013-02-28 11:50:00,52.0,34.0,29.86,NNW,342,2.0,16.0,50,0.00,,---,0.00,VWS V14.00,2013-02-28 16:50:00,
2013-02-28 11:55:00,52.4,34.3,29.86,NW,319,5.0,16.0,50,0.00,,---,0.00,VWS V14.00,2013-02-28 16:55:00,
2013-02-28 12:00:00,52.7,33.6,29.86,North,360,5.0,11.0,48,0.00,,---,0.00,VWS V14.00,2013-02-28 17:00:00,
2013-02-28 12:05:00,52.2,33.6,29.86,NW,322,6.0,11.0,49,0.00,,---,0.00,VWS V14.00,2013-02-28 17:05:00,
2013-02-28 12:10:00,51.8,33.8,29.85,North,360,4.0,14.0,50,0.00,,---,0.00,VWS V14.00,2013-02-28 17:10:00,
2013-02-28 12:15:00,51.7,33.7,29.85,NNW,335,9.0,15.0,50,0.00,,---,0.00,VWS V14.00,2013-02-28 17:15:00,
2013-02-28 12:20:00,51.3,33.3,29.85,North,10,7.0,15.0,50,0.00,,---,0.00,VWS V14.00,2013-02-28 17:20:00,
2013-02-28 12:25:00,51.4,34.4,29.85,North,355,5.0,15.0,52,0.00,,---,0.00,VWS V14.00,2013-02-28 17:25:00,
2013-02-28 12:30:00,52.3,34.7,29.85,NW,313,8.0,13.0,51,0.00,,---,0.00,VWS V14.00,2013-02-28 17:30:00,
2013-02-28 12:35:00,53.1,35.0,29.85,West,279,2.0,13.0,50,0.00,,---,0.00,VWS V14.00,2013-02-28 17:35:00,
2013-02-28 12:40:00,53.2,34.0,29.85,NNE,23,6.0,13.0,48,0.00,,---,0.00,VWS V14.00,2013-02-28 17:40:00,
2013-02-28 12:45:00,53.2,34.0,29.85,NNE,15,3.0,17.0,48,0.00,,---,0.00,VWS V14.00,2013-02-28 17:45:00,
2013-02-28 12:50:00,53.2,34.0,29.84,WNW,302,6.0,17.0,48,0.00,,---,0.00,VWS V14.00,2013-02-28 17:50:00,
2013-02-28 12:55:00,53.6,33.9,29.84,NW,324,5.0,17.0,47,0.00,,---,0.00,VWS V14.00,2013-02-28 17:55:00,
2013-02-28 13:00:00,53.3,34.1,29.84,West,261,4.0,11.0,48,0.00,,---,0.00,VWS V14.00,2013-02-28 18:00:00,
2013-02-28 13:05:00,53.5,33.8,29.84,NW,316,2.0,11.0,47,0.00,,---,0.00,VWS V14.00,2013-02-28 18:05:00,
2013-02-28 13:10:00,53.2,34.0,29.83,WNW,299,7.0,13.0,48,0.00,,---,0.00,VWS V14.00,2013-02-28 18:10:00,
2013-02-28 13:15:00,53.3,33.6,29.83,North,5,3.0,17.0,47,0.00,,---,0.00,VWS V14.00,2013-02-28 18:15:00,
2013-02-28 13:20:00,53.3,34.7,29.83,WSW,240,10.0,17.0,49,0.00,,---,0.00,VWS V14.00,2013-02-28 18:20:00,
2013-02-28 13:25:00,54.1,34.9,29.83,NNW,336,5.0,17.0,48,0.00,,---,0.00,VWS V14.00,2013-02-28 18:25:00,
2013-02-28 13:30:00,54.5,34.7,29.82,West,261,10.0,10.0,47,0.00,,---,0.00,VWS V14.00,2013-02-28 18:30:00,
2013-02-28 13:35:00,54.8,35.0,29.83,NNW,327,2.0,10.0,47,0.00,,---,0.00,VWS V14.00,2013-02-28 18:35:00,
2013-02-28 13:40:00,54.7,34.9,29.82,NNE,15,0.0,12.0,47,0.00,,---,0.00,VWS V14.00,2013-02-28 18:40:00,
2013-02-28 13:45:00,54.2,34.4,29.83,WNW,303,2.0,12.0,47,0.00,,---,0.00,VWS V14.00,2013-02-28 18:45:00,
2013-02-28 13:50:00,54.6,35.8,29.82,WSW,252,5.0,12.0,49,0.00,,---,0.00,VWS V14.00,2013-02-28 18:50:00,
2013-02-28 13:55:00,55.5,35.1,29.82,NNE,29,4.0,14.0,46,0.00,,---,0.00,VWS V14.00,2013-02-28 18:55:00,
2013-02-28 14:00:00,55.1,34.2,29.82,NNE,22,6.0,14.0,45,0.00,,---,0.00,VWS V14.00,2013-02-28 19:00:00,
2013-02-28 14:05:00,54.6,34.8,29.82,WSW,249,12.0,19.0,47,0.00,,---,0.00,VWS V14.00,2013-02-28 19:05:00,
2013-02-28 14:10:00,54.6,34.2,29.82,North,360,1.0,19.0,46,0.00,,---,0.00,VWS V14.00,2013-02-28 19:10:00,
2013-02-28 14:15:00,54.8,34.4,29.82,SW,220,4.0,19.0,46,0.00,,---,0.00,VWS V14.00,2013-02-28 19:15:00,
2013-02-28 14:20:00,54.8,35.0,29.82,NNW,333,5.0,19.0,47,0.00,,---,0.00,VWS V14.00,2013-02-28 19:20:00,
2013-02-28 14:25:00,54.6,35.3,29.82,NW,321,8.0,19.0,48,0.00,,---,0.00,VWS V14.00,2013-02-28 19:25:00,
2013-02-28 14:30:00,54.2,35.0,29.82,WSW,242,5.0,11.0,48,0.00,,---,0.00,VWS V14.00,2013-02-28 19:30:00,
2013-02-28 14:35:00,54.0,34.8,29.83,NNW,338,7.0,12.0,48,0.00,,---,0.00,VWS V14.00,2013-02-28 19:35:00,
2013-02-28 14:40:00,53.5,34.3,29.82,NNW,347,5.0,12.0,48,0.00,,---,0.00,VWS V14.00,2013-02-28 19:40:00,
2013-02-28 14:45:00,53.5,34.8,29.82,West,271,6.0,12.0,49,0.00,,---,0.00,VWS V14.00,2013-02-28 19:45:00,
2013-02-28 14:50:00,53.5,34.8,29.82,NW,317,8.0,12.0,49,0.00,,---,0.00,VWS V14.00,2013-02-28 19:50:00,
2013-02-28 14:55:00,53.6,34.9,29.83,NNW,336,6.0,12.0,49,0.00,,---,0.00,VWS V14.00,2013-02-28 19:55:00,
2013-02-28 15:00:00,53.5,34.3,29.83,WNW,291,9.0,13.0,48,0.00,,---,0.00,VWS V14.00,2013-02-28 20:00:00,
2013-02-28 15:05:00,53.6,34.4,29.82,NNW,340,1.0,13.0,48,0.00,,---,0.00,VWS V14.00,2013-02-28 20:05:00,
2013-02-28 15:10:00,53.8,34.1,29.82,NNE,24,7.0,13.0,47,0.00,,---,0.00,VWS V14.00,2013-02-28 20:10:00,
2013-02-28 15:15:00,54.2,33.9,29.82,WNW,291,5.0,14.0,46,0.00,,---,0.00,VWS V14.00,2013-02-28 20:15:00,
2013-02-28 15:20:00,54.5,34.2,29.82,NNE,31,5.0,14.0,46,0.00,,---,0.00,VWS V14.00,2013-02-28 20:20:00,
2013-02-28 15:25:00,54.6,34.2,29.82,SW,225,8.0,14.0,46,0.00,,---,0.00,VWS V14.00,2013-02-28 20:25:00,
2013-02-28 15:30:00,54.7,34.3,29.83,NNE,19,6.0,13.0,46,0.00,,---,0.00,VWS V14.00,2013-02-28 20:30:00,
2013-02-28 15:35:00,54.3,34.0,29.83,NNW,331,6.0,13.0,46,0.00,,---,0.00,VWS V14.00,2013-02-28 20:35:00,
2013-02-28 15:40:00,53.6,33.3,29.84,North,355,7.0,19.0,46,0.00,,---,0.00,VWS V14.00,2013-02-28 20:40:00,
2013-02-28 15:45:00,53.5,33.2,29.83,NW,320,8.0,19.0,46,0.00,,---,0.00,VWS V14.00,2013-02-28 20:45:00,
2013-02-28 15:50:00,53.6,33.3,29.83,NNW,338,10.0,19.0,46,0.00,,---,0.00,VWS V14.00,2013-02-28 20:50:00,
2013-02-28 15:55:00,54.0,33.2,29.83,North,350,2.0,19.0,45,0.00,,---,0.00,VWS V14.00,2013-02-28 20:55:00,
2013-02-28 16:00:00,54.2,33.3,29.83,NW,321,4.0,16.0,45,0.00,,---,0.00,VWS V14.00,2013-02-28 21:00:00,
2013-02-28 16:05:00,54.3,33.4,29.84,NW,305,2.0,16.0,45,0.00,,---,0.00,VWS V14.00,2013-02-28 21:05:00,
2013-02-28 16:10:00,54.0,33.2,29.83,NW,323,4.0,16.0,45,0.00,,---,0.00,VWS V14.00,2013-02-28 21:10:00,
2013-02-28 16:15:00,53.3,33.1,29.83,North,355,5.0,16.0,46,0.00,,---,0.00,VWS V14.00,2013-02-28 21:15:00,
2013-02-28 16:20:00,53.2,33.5,29.83,West,264,4.0,16.0,47,0.00,,---,0.00,VWS V14.00,2013-02-28 21:20:00,
2013-02-28 16:25:00,53.3,33.1,29.83,WNW,286,11.0,18.0,46,0.00,,---,0.00,VWS V14.00,2013-02-28 21:25:00,
2013-02-28 16:30:00,52.9,32.7,29.83,NW,317,5.0,14.0,46,0.00,,---,0.00,VWS V14.00,2013-02-28 21:30:00,
2013-02-28 16:35:00,52.4,32.2,29.83,NNW,329,6.0,14.0,46,0.00,,---,0.00,VWS V14.00,2013-02-28 21:35:00,
2013-02-28 16:40:00,52.3,32.7,29.84,NNW,331,4.0,14.0,47,0.00,,---,0.00,VWS V14.00,2013-02-28 21:40:00,
2013-02-28 16:45:00,52.7,33.0,29.84,NNE,12,6.0,14.0,47,0.00,,---,0.00,VWS V14.00,2013-02-28 21:45:00,
2013-02-28 16:50:00,53.1,33.4,29.84,North,5,1.0,14.0,47,0.00,,---,0.00,VWS V14.00,2013-02-28 21:50:00,
2013-02-28 16:55:00,53.1,33.4,29.84,North,350,6.0,14.0,47,0.00,,---,0.00,VWS V14.00,2013-02-28 21:55:00,
2013-02-28 17:00:00,52.9,32.7,29.84,NW,323,8.0,10.0,46,0.00,,---,0.00,VWS V14.00,2013-02-28 22:00:00,
2013-02-28 17:05:00,52.6,33.0,29.84,NNW,342,2.0,12.0,47,0.00,,---,0.00,VWS V14.00,2013-02-28 22:05:00,
2013-02-28 17:10:00,52.1,32.5,29.84,NW,318,1.0,12.0,47,0.00,,---,0.00,VWS V14.00,2013-02-28 22:10:00,
2013-02-28 17:15:00,51.8,33.8,29.85,ENE,57,11.0,12.0,50,0.00,,---,0.00,VWS V14.00,2013-02-28 22:15:00,
2013-02-28 17:20:00,51.4,33.4,29.85,North,355,4.0,13.0,50,0.00,,---,0.00,VWS V14.00,2013-02-28 22:20:00,
2013-02-28 17:25:00,51.1,33.1,29.85,NW,315,1.0,13.0,50,0.00,,---,0.00,VWS V14.00,2013-02-28 22:25:00,
2013-02-28 17:30:00,50.9,33.4,29.85,NW,324,4.0,7.0,51,0.00,,---,0.00,VWS V14.00,2013-02-28 22:30:00,
2013-02-28 17:35:00,50.6,33.2,29.86,North,355,5.0,8.0,51,0.00,,---,0.00,VWS V14.00,2013-02-28 22:35:00,
2013-02-28 17:40:00,50.3,33.4,29.86,North,360,2.0,9.0,52,0.00,,---,0.00,VWS V14.00,2013-02-28 22:40:00,
2013-02-28 17:45:00,50.1,32.7,29.86,NW,325,1.0,9.0,51,0.00,,---,0.00,VWS V14.00,2013-02-28 22:45:00,
2013-02-28 17:50:00,49.9,33.0,29.86,NNW,332,7.0,9.0,52,0.00,,---,0.00,VWS V14.00,2013-02-28 22:50:00,
2013-02-28 17:55:00,49.8,32.9,29.87,NW,311,4.0,9.0,52,0.00,,---,0.00,VWS V14.00,2013-02-28 22:55:00,
2013-02-28 18:00:00,49.6,32.7,29.87,NW,323,0.0,7.0,52,0.00,,---,0.00,VWS V14.00,2013-02-28 23:00:00,
2013-02-28 18:05:00,49.5,32.6,29.87,NNW,327,1.0,11.0,52,0.00,,---,0.00,VWS V14.00,2013-02-28 23:05:00,
2013-02-28 18:10:00,49.4,33.0,29.87,NNW,346,6.0,11.0,53,0.00,,---,0.00,VWS V14.00,2013-02-28 23:10:00,
2013-02-28 18:15:00,49.2,32.8,29.87,NW,326,1.0,11.0,53,0.00,,---,0.00,VWS V14.00,2013-02-28 23:15:00,
2013-02-28 18:20:00,49.1,32.7,29.87,NW,311,0.0,11.0,53,0.00,,---,0.00,VWS V14.00,2013-02-28 23:20:00,
2013-02-28 18:25:00,48.9,32.5,29.87,WNW,292,2.0,11.0,53,0.00,,---,0.00,VWS V14.00,2013-02-28 23:25:00,
2013-02-28 18:30:00,48.7,32.8,29.87,NNW,347,7.0,8.0,54,0.00,,---,0.00,VWS V14.00,2013-02-28 23:30:00,
2013-02-28 18:35:00,48.5,32.6,29.88,West,276,5.0,10.0,54,0.00,,---,0.00,VWS V14.00,2013-02-28 23:35:00,
2013-02-28 18:40:00,48.2,32.3,29.88,NW,305,0.0,10.0,54,0.00,,---,0.00,VWS V14.00,2013-02-28 23:40:00,
2013-02-28 18:45:00,47.9,32.5,29.89,NW,315,1.0,11.0,55,0.00,,---,0.00,VWS V14.00,2013-02-28 23:45:00,
2013-02-28 18:50:00,47.7,32.3,29.89,NNW,327,1.0,11.0,55,0.00,,---,0.00,VWS V14.00,2013-02-28 23:50:00,
2013-02-28 18:55:00,47.5,32.2,29.89,NNW,332,4.0,11.0,55,0.00,,---,0.00,VWS V14.00,2013-02-28 23:55:00,
2013-02-28 19:00:00,47.2,32.3,29.89,NW,304,1.0,8.0,56,0.00,,---,0.00,VWS V14.00,2013-03-01 00:00:00,
2013-02-28 19:05:00,47.0,32.1,29.89,NNW,334,1.0,8.0,56,0.00,,---,0.00,VWS V14.00,2013-03-01 00:05:00,
2013-02-28 19:10:00,46.8,32.4,29.89,NW,325,2.0,8.0,57,0.00,,---,0.00,VWS V14.00,2013-03-01 00:10:00,
2013-02-28 19:15:00,46.6,32.2,29.89,NNW,331,0.0,8.0,57,0.00,,---,0.00,VWS V14.00,2013-03-01 00:15:00,
2013-02-28 19:20:00,46.3,31.9,29.89,North,351,2.0,8.0,57,0.00,,---,0.00,VWS V14.00,2013-03-01 00:20:00,
2013-02-28 19:25:00,46.1,31.7,29.89,NNE,17,8.0,8.0,57,0.00,,---,0.00,VWS V14.00,2013-03-01 00:25:00,
2013-02-28 19:30:00,45.9,31.5,29.90,North,9,4.0,8.0,57,0.00,,---,0.00,VWS V14.00,2013-03-01 00:30:00,
2013-02-28 19:35:00,45.7,31.4,29.90,NNW,336,1.0,10.0,57,0.00,,---,0.00,VWS V14.00,2013-03-01 00:35:00,
2013-02-28 19:40:00,45.5,31.2,29.89,North,360,1.0,10.0,57,0.00,,---,0.00,VWS V14.00,2013-03-01 00:40:00,
2013-02-28 19:45:00,45.2,30.9,29.90,NNW,340,5.0,10.0,57,0.00,,---,0.00,VWS V14.00,2013-03-01 00:45:00,
2013-02-28 19:50:00,45.0,30.7,29.90,NNE,26,1.0,11.0,57,0.00,,---,0.00,VWS V14.00,2013-03-01 00:50:00,
2013-02-28 19:55:00,44.8,30.1,29.90,NNE,13,2.0,11.0,56,0.00,,---,0.00,VWS V14.00,2013-03-01 00:55:00,
2013-02-28 20:00:00,44.5,29.8,29.91,NNE,15,7.0,7.0,56,0.00,,---,0.00,VWS V14.00,2013-03-01 01:00:00,
2013-02-28 20:05:00,44.2,29.1,29.91,North,360,3.0,8.0,55,0.00,,---,0.00,VWS V14.00,2013-03-01 01:05:00,
2013-02-28 20:10:00,44.0,29.3,29.91,NNW,345,1.0,8.0,56,0.00,,---,0.00,VWS V14.00,2013-03-01 01:10:00,
2013-02-28 20:15:00,43.7,29.0,29.91,NW,317,4.0,11.0,56,0.00,,---,0.00,VWS V14.00,2013-03-01 01:15:00,
2013-02-28 20:20:00,43.5,28.9,29.91,North,360,2.0,11.0,56,0.00,,---,0.00,VWS V14.00,2013-03-01 01:20:00,
2013-02-28 20:25:00,43.3,28.7,29.91,NNW,334,0.0,11.0,56,0.00,,---,0.00,VWS V14.00,2013-03-01 01:25:00,
2013-02-28 20:30:00,43.1,28.5,29.91,NNW,341,5.0,6.0,56,0.00,,---,0.00,VWS V14.00,2013-03-01 01:30:00,
2013-02-28 20:35:00,42.9,28.7,29.91,NNW,335,1.0,6.0,57,0.00,,---,0.00,VWS V14.00,2013-03-01 01:35:00,
2013-02-28 20:40:00,42.6,28.9,29.91,NNE,28,3.0,6.0,58,0.00,,---,0.00,VWS V14.00,2013-03-01 01:40:00,
2013-02-28 20:45:00,42.4,28.3,29.91,NNE,18,0.0,11.0,57,0.00,,---,0.00,VWS V14.00,2013-03-01 01:45:00,
2013-02-28 20:50:00,42.3,28.6,29.91,NNE,13,0.0,11.0,58,0.00,,---,0.00,VWS V14.00,2013-03-01 01:50:00,
2013-02-28 20:55:00,42.1,28.4,29.91,NNW,340,4.0,11.0,58,0.00,,---,0.00,VWS V14.00,2013-03-01 01:55:00,
2013-02-28 21:00:00,42.0,28.3,29.92,North,355,7.0,7.0,58,0.00,,---,0.00,VWS V14.00,2013-03-01 02:00:00,
2013-02-28 21:05:00,41.8,28.5,29.92,North,5,0.0,11.0,59,0.00,,---,0.00,VWS V14.00,2013-03-01 02:05:00,
2013-02-28 21:10:00,41.7,28.4,29.92,North,360,5.0,11.0,59,0.00,,---,0.00,VWS V14.00,2013-03-01 02:10:00,
2013-02-28 21:15:00,41.5,28.7,29.92,NNW,344,2.0,11.0,60,0.00,,---,0.00,VWS V14.00,2013-03-01 02:15:00,
2013-02-28 21:20:00,41.3,28.5,29.92,North,9,1.0,11.0,60,0.00,,---,0.00,VWS V14.00,2013-03-01 02:20:00,
2013-02-28 21:25:00,41.1,28.3,29.92,North,360,0.0,11.0,60,0.00,,---,0.00,VWS V14.00,2013-03-01 02:25:00,
2013-02-28 21:30:00,40.9,28.1,29.92,North,351,6.0,6.0,60,0.00,,---,0.00,VWS V14.00,2013-03-01 02:30:00,
2013-02-28 21:35:00,40.8,28.4,29.92,NW,315,0.0,6.0,61,0.00,,---,0.00,VWS V14.00,2013-03-01 02:35:00,
2013-02-28 21:40:00,40.6,28.2,29.92,NNE,30,0.0,8.0,61,0.00,,---,0.00,VWS V14.00,2013-03-01 02:40:00,
2013-02-28 21:45:00,40.5,28.1,29.93,NNW,347,4.0,9.0,61,0.00,,---,0.00,VWS V14.00,2013-03-01 02:45:00,
2013-02-28 21:50:00,40.4,28.0,29.92,North,355,2.0,9.0,61,0.00,,---,0.00,VWS V14.00,2013-03-01 02:50:00,
2013-02-28 21:55:00,40.2,28.2,29.93,NW,323,4.0,9.0,62,0.00,,---,0.00,VWS V14.00,2013-03-01 02:55:00,
2013-02-28 22:00:00,40.0,28.0,29.93,NW,321,4.0,7.0,62,0.00,,---,0.00,VWS V14.00,2013-03-01 03:00:00,
2013-02-28 22:05:00,39.9,28.0,29.93,NNW,347,0.0,7.0,62,0.00,,---,0.00,VWS V14.00,2013-03-01 03:05:00,
2013-02-28 22:10:00,39.8,27.9,29.93,NNW,348,0.0,7.0,62,0.00,,---,0.00,VWS V14.00,2013-03-01 03:10:00,
2013-02-28 22:15:00,39.8,27.9,29.93,NW,315,0.0,7.0,62,0.00,,---,0.00,VWS V14.00,2013-03-01 03:15:00,
2013-02-28 22:20:00,39.7,27.8,29.93,NW,314,4.0,7.0,62,0.00,,---,0.00,VWS V14.00,2013-03-01 03:20:00,
2013-02-28 22:25:00,39.7,27.8,29.93,NW,314,0.0,7.0,62,0.00,,---,0.00,VWS V14.00,2013-03-01 03:25:00,
2013-02-28 22:30:00,39.7,27.8,29.93,NW,317,0.0,4.0,62,0.00,,---,0.00,VWS V14.00,2013-03-01 03:30:00,
2013-02-28 22:35:00,39.7,27.8,29.92,North,351,4.0,6.0,62,0.00,,---,0.00,VWS V14.00,2013-03-01 03:35:00,
2013-02-28 22:40:00,39.6,28.1,29.92,NNW,340,4.0,7.0,63,0.00,,---,0.00,VWS V14.00,2013-03-01 03:40:00,
2013-02-28 22:45:00,39.6,27.7,29.92,NW,309,6.0,7.0,62,0.00,,---,0.00,VWS V14.00,2013-03-01 03:45:00,
2013-02-28 22:50:00,39.5,28.0,29.93,NW,313,0.0,7.0,63,0.00,,---,0.00,VWS V14.00,2013-03-01 03:50:00,
2013-02-28 22:55:00,39.4,27.5,29.93,NW,320,2.0,7.0,62,0.00,,---,0.00,VWS V14.00,2013-03-01 03:55:00,
2013-02-28 23:00:00,39.4,27.9,29.93,NW,309,2.0,6.0,63,0.00,,---,0.00,VWS V14.00,2013-03-01 04:00:00,
2013-02-28 23:05:00,39.4,27.5,29.93,NW,316,0.0,6.0,62,0.00,,---,0.00,VWS V14.00,2013-03-01 04:05:00,
2013-02-28 23:10:00,39.3,27.8,29.93,NW,315,5.0,6.0,63,0.00,,---,0.00,VWS V14.00,2013-03-01 04:10:00,
2013-02-28 23:15:00,39.3,27.8,29.93,NNW,347,1.0,6.0,63,0.00,,---,0.00,VWS V14.00,2013-03-01 04:15:00,
2013-02-28 23:20:00,39.2,27.7,29.92,NNW,329,2.0,7.0,63,0.00,,---,0.00,VWS V14.00,2013-03-01 04:20:00,
2013-02-28 23:25:00,39.1,27.6,29.92,NW,319,1.0,7.0,63,0.00,,---,0.00,VWS V14.00,2013-03-01 04:25:00,
2013-02-28 23:30:00,39.1,27.6,29.93,NNW,338,6.0,6.0,63,0.00,,---,0.00,VWS V14.00,2013-03-01 04:30:00,
2013-02-28 23:35:00,39.0,27.5,29.93,North,355,2.0,8.0,63,0.00,,---,0.00,VWS V14.00,2013-03-01 04:35:00,
2013-02-28 23:40:00,39.0,27.5,29.93,NNW,342,1.0,8.0,63,0.00,,---,0.00,VWS V14.00,2013-03-01 04:40:00,
2013-02-28 23:45:00,38.9,27.4,29.93,NNW,340,2.0,8.0,63,0.00,,---,0.00,VWS V14.00,2013-03-01 04:45:00,
2013-02-28 23:50:00,38.8,27.3,29.93,NNW,345,2.0,8.0,63,0.00,,---,0.00,VWS V14.00,2013-03-01 04:50:00,
2013-02-28 23:55:00,38.8,27.3,29.92,NNW,344,2.0,8.0,63,0.00,,---,0.00,VWS V14.00,2013-03-01 04:55:00,